N0ICQ Weather Reports


time (UTC)temp
F
wind
direction
speed
knots
gust
knots
rain 1hr
in
rain 24hr
in
rain mn
in
humidity
%
barometer
mb
20260504110542 52 240 13.0 0.0 0.00 0.00 0.00 61 995.4
20260504100549 53 244 15.6 0.0 0.00 0.00 0.00 53 994.9
20260504081521 52 221 13.9 0.0 0.00 0.00 0.00 49 996.1
20260504081048 52 220 13.0 0.0 0.00 0.00 0.00 49 996.1
20260504080532 52 213 13.0 0.0 0.00 0.00 0.00 49 996.1
20260504050541 50 221 9.6 0.0 0.00 0.00 0.00 46 999.4
20260504050020 50 223 8.7 0.0 0.00 0.00 0.00 46 999.8
20260504045551 51 221 9.6 0.0 0.00 0.00 0.00 45 999.8
20260504045037 51 221 9.6 0.0 0.00 0.00 0.00 44 999.8
20260504044557 51 220 9.6 0.0 0.00 0.00 0.00 43 999.8
20260504044501 52 221 9.6 0.0 0.00 0.00 0.00 44 999.8
20260504044036 52 223 10.4 0.0 0.00 0.00 0.00 43 999.8
20260504043531 53 227 10.4 0.0 0.00 0.00 0.00 41 999.8
20260504043044 53 223 10.4 0.0 0.00 0.00 0.00 42 1000.1
20260504042510 52 216 9.6 0.0 0.00 0.00 0.00 42 1000.1
20260504042044 50 217 7.8 0.0 0.00 0.00 0.00 45 1000.1
20260504041521 49 209 7.0 0.0 0.00 0.00 0.00 47 1000.5
20260504041100 50 216 7.8 0.0 0.00 0.00 0.00 46 1000.5
20260504041001 50 211 7.8 0.0 0.00 0.00 0.00 46 1000.5
20260504040523 50 215 7.8 0.0 0.00 0.00 0.00 45 1000.5
20260504040108 50 217 7.8 0.0 0.00 0.00 0.00 45 1000.7
20260504040001 50 217 7.8 0.0 0.00 0.00 0.00 45 1000.7
20260504035530 50 216 7.8 0.0 0.00 0.00 0.00 45 1000.7
20260504035007 49 218 7.8 0.0 0.00 0.00 0.00 46 1000.7
20260504034529 50 215 8.7 0.0 0.00 0.00 0.00 45 1001.1
20260504034052 50 213 7.8 0.0 0.00 0.00 0.00 45 1001.1
20260504033533 50 210 6.1 0.0 0.00 0.00 0.00 45 1001.1
20260504033100 50 221 5.2 0.0 0.00 0.00 0.00 44 1001.4
20260504032525 51 227 5.2 0.0 0.00 0.00 0.00 44 1001.4
20260504032007 51 223 5.2 0.0 0.00 0.00 0.00 43 1001.4
20260504031530 51 219 5.2 0.0 0.00 0.00 0.00 43 1001.7
20260504031012 51 225 5.2 0.0 0.00 0.00 0.00 42 1001.7
20260504030537 51 230 5.2 0.0 0.00 0.00 0.00 42 1001.7
20260504030114 51 242 6.1 0.0 0.00 0.00 0.00 42 1001.6
20260504030002 51 244 6.1 0.0 0.00 0.00 0.00 42 1001.6
20260504025542 52 228 7.0 0.0 0.00 0.00 0.00 42 1001.6
20260504025009 52 211 7.0 0.0 0.00 0.00 0.00 41 1001.6
20260504024551 52 202 6.1 0.0 0.00 0.00 0.00 40 1001.7
20260504024017 53 217 5.2 0.0 0.00 0.00 0.00 39 1001.7
20260504023539 53 243 4.3 0.0 0.00 0.00 0.00 38 1001.7
20260504023022 54 251 4.3 0.0 0.00 0.00 0.00 37 1001.6
20260504022549 54 250 4.3 0.0 0.00 0.00 0.00 37 1001.6
20260504022027 54 237 4.3 0.0 0.00 0.00 0.00 36 1001.6
20260504021512 55 242 5.2 0.0 0.00 0.00 0.00 36 1002.0
20260504021038 55 241 5.2 0.0 0.00 0.00 0.00 36 1002.0
20260504020517 55 241 5.2 0.0 0.00 0.00 0.00 36 1002.0
20260504020041 56 244 6.1 0.0 0.00 0.00 0.00 34 1002.0
20260504015600 57 248 6.1 0.0 0.00 0.00 0.00 33 1002.0
20260504015502 57 248 5.2 0.0 0.00 0.00 0.00 33 1002.0
20260504015039 58 261 6.1 0.0 0.00 0.00 0.00 32 1002.0
20260504014520 59 258 7.0 0.0 0.00 0.00 0.00 31 1002.0
20260504014043 59 262 7.8 0.0 0.00 0.00 0.00 31 1002.0
20260504013515 59 252 7.8 0.0 0.00 0.00 0.00 31 1002.0
20260504013051 60 252 7.8 0.0 0.00 0.00 0.00 30 1001.8
20260504012536 61 254 7.0 0.0 0.00 0.00 0.00 28 1001.8
20260504012054 62 257 7.8 0.0 0.00 0.00 0.00 28 1001.8
20260504011521 63 255 9.6 0.0 0.00 0.00 0.00 27 1001.8
20260504011059 63 245 10.4 0.0 0.00 0.00 0.00 26 1001.8
20260504011003 64 253 10.4 0.0 0.00 0.00 0.00 26 1001.8
20260504010533 64 245 11.3 0.0 0.00 0.00 0.00 24 1001.8
20260504010049 65 236 11.3 0.0 0.00 0.00 0.00 24 1001.8
20260504005535 65 235 11.3 0.0 0.00 0.00 0.00 24 1001.8
20260504005056 66 240 11.3 0.0 0.00 0.00 0.00 25 1001.8
20260504004536 66 243 12.2 0.0 0.00 0.00 0.00 25 1001.7
20260504004018 66 233 12.2 0.0 0.00 0.00 0.00 25 1001.7
20260504003543 67 240 12.2 0.0 0.00 0.00 0.00 26 1001.7
20260504003015 67 242 12.2 0.0 0.00 0.00 0.00 26 1001.7
20260504002549 67 249 11.3 0.0 0.00 0.00 0.00 25 1001.7
20260504002017 67 238 11.3 0.0 0.00 0.00 0.00 26 1001.7
20260504001557 67 244 11.3 0.0 0.00 0.00 0.00 27 1002.1
20260504001502 67 254 11.3 0.0 0.00 0.00 0.00 27 1002.1
20260504001030 67 270 11.3 0.0 0.00 0.00 0.00 27 1002.1
20260504000547 68 257 11.3 0.0 0.00 0.00 0.00 27 1002.1
20260504000030 68 269 10.4 0.0 0.00 0.00 0.00 27 1002.3
20260503235552 68 275 8.7 0.0 0.00 0.00 0.00 29 1002.3
20260503235037 68 275 10.4 0.0 0.00 0.00 0.00 27 1002.3
20260503234603 68 274 10.4 0.0 0.00 0.00 0.00 26 1002.5
20260503234502 68 255 10.4 0.0 0.00 0.00 0.00 27 1002.5
20260503234026 68 242 8.7 0.0 0.00 0.00 0.00 28 1002.5
20260503233508 68 245 8.7 0.0 0.00 0.00 0.00 28 1002.5
20260503233038 68 249 9.6 0.0 0.00 0.00 0.00 29 1002.8
20260503232556 68 275 8.7 0.0 0.00 0.00 0.00 27 1002.8
20260503232039 68 244 7.8 0.0 0.00 0.00 0.00 30 1002.8
20260503231517 68 281 8.7 0.0 0.00 0.00 0.00 30 1002.9
20260503231040 68 236 9.6 0.0 0.00 0.00 0.00 28 1002.9
20260503230600 69 283 10.4 0.0 0.00 0.00 0.00 28 1002.9
20260503230503 69 257 10.4 0.0 0.00 0.00 0.00 28 1002.9
20260503230042 68 246 11.3 0.0 0.00 0.00 0.00 28 1003.1
20260503225510 69 248 11.3 0.0 0.00 0.00 0.00 27 1003.1
20260503225047 69 244 12.2 0.0 0.00 0.00 0.00 29 1003.1
20260503224516 68 256 10.4 0.0 0.00 0.00 0.00 27 1003.3
20260503224034 68 254 9.6 0.0 0.00 0.00 0.00 29 1003.3
20260503223516 68 286 10.4 0.0 0.00 0.00 0.00 29 1003.3
20260503223037 68 277 11.3 0.0 0.00 0.00 0.00 28 1003.4
20260503222515 69 248 12.2 0.0 0.00 0.00 0.00 30 1003.4
20260503222055 69 255 13.0 0.0 0.00 0.00 0.00 26 1003.4
20260503221525 69 275 11.3 0.0 0.00 0.00 0.00 28 1003.3
20260503221005 68 247 10.4 0.0 0.00 0.00 0.00 30 1003.3
20260503220527 69 253 9.6 0.0 0.00 0.00 0.00 30 1003.3
20260503220013 68 251 10.4 0.0 0.00 0.00 0.00 30 1003.3
20260503215534 68 298 9.6 0.0 0.00 0.00 0.00 28 1003.3
20260503215053 68 252 8.7 0.0 0.00 0.00 0.00 29 1003.3
20260503214537 68 267 10.4 0.0 0.00 0.00 0.00 29 1003.5
20260503214056 69 292 9.6 0.0 0.00 0.00 0.00 28 1003.5
20260503213537 69 265 9.6 0.0 0.00 0.00 0.00 28 1003.5
20260503213058 69 252 10.4 0.0 0.00 0.00 0.00 28 1003.9
20260503212521 68 255 9.6 0.0 0.00 0.00 0.00 29 1003.9
20260503212100 68 325 9.6 0.0 0.00 0.00 0.00 30 1003.9
20260503212004 68 265 10.4 0.0 0.00 0.00 0.00 30 1003.9
20260503211523 68 254 9.6 0.0 0.00 0.00 0.00 31 1004.1
20260503211046 68 254 7.8 0.0 0.00 0.00 0.00 31 1004.1
20260503210525 68 270 7.8 0.0 0.00 0.00 0.00 31 1004.1
20260503210047 68 273 9.6 0.0 0.00 0.00 0.00 33 1004.3
20260503205517 68 279 9.6 0.0 0.00 0.00 0.00 31 1004.3
20260503205054 68 273 8.7 0.0 0.00 0.00 0.00 33 1004.3
20260503204519 68 289 7.8 0.0 0.00 0.00 0.00 35 1004.6
20260503204100 67 280 8.7 0.0 0.00 0.00 0.00 31 1004.6
20260503204001 67 281 9.6 0.0 0.00 0.00 0.00 33 1004.6
20260503203530 67 275 10.4 0.0 0.00 0.00 0.00 28 1004.6
20260503203006 68 292 10.4 0.0 0.00 0.00 0.00 30 1004.7
20260503202529 68 284 10.4 0.0 0.00 0.00 0.00 31 1004.7
20260503202011 67 263 8.7 0.0 0.00 0.00 0.00 36 1004.7
20260503201546 68 327 8.7 0.0 0.00 0.00 0.00 33 1004.8
20260503201016 67 300 9.6 0.0 0.00 0.00 0.00 36 1004.8
20260503200547 67 260 10.4 0.0 0.00 0.00 0.00 35 1004.8
20260503200013 67 305 8.7 0.0 0.00 0.00 0.00 37 1005.1
20260503195536 67 288 8.7 0.0 0.00 0.00 0.00 34 1005.1
20260503195019 67 319 9.6 0.0 0.00 0.00 0.00 36 1005.1
20260503194602 67 286 10.4 0.0 0.00 0.00 0.00 36 1005.2
20260503194501 66 294 10.4 0.0 0.00 0.00 0.00 36 1005.2
20260503194025 66 285 9.6 0.0 0.00 0.00 0.00 37 1005.2
20260503193556 66 325 8.7 0.0 0.00 0.00 0.00 38 1005.2
20260503193046 66 284 8.7 0.0 0.00 0.00 0.00 40 1005.5
20260503192510 66 247 11.3 0.0 0.00 0.00 0.00 38 1005.5
20260503192049 66 303 11.3 0.0 0.00 0.00 0.00 36 1005.5
20260503191513 66 298 10.4 0.0 0.00 0.00 0.00 37 1005.6
20260503191054 66 306 10.4 0.0 0.00 0.00 0.00 37 1005.6
20260503190520 66 292 10.4 0.0 0.00 0.00 0.00 35 1005.6
20260503190059 65 294 12.2 0.0 0.00 0.00 0.00 40 1005.6
20260503190001 65 328 13.0 0.0 0.00 0.00 0.00 38 1005.6
20260503185521 66 308 12.2 0.0 0.00 0.00 0.00 37 1005.6
20260503185043 66 331 10.4 0.0 0.00 0.00 0.00 41 1005.6
20260503184521 65 298 12.2 0.0 0.00 0.00 0.00 39 1005.8
20260503184047 65 342 11.3 0.0 0.00 0.00 0.00 37 1005.8
20260503183531 66 296 10.4 0.0 0.00 0.00 0.00 36 1005.8
20260503183052 65 271 13.0 0.0 0.00 0.00 0.00 40 1006.2
20260503182515 65 316 13.0 0.0 0.00 0.00 0.00 40 1006.2
20260503182053 65 321 11.3 0.0 0.00 0.00 0.00 41 1006.2
20260503181521 65 334 9.6 0.0 0.00 0.00 0.00 41 1006.3
20260503181059 65 317 8.7 0.0 0.00 0.00 0.00 42 1006.3
20260503181004 65 336 9.6 0.0 0.00 0.00 0.00 40 1006.3
20260503180523 64 323 12.2 0.0 0.00 0.00 0.00 43 1006.3
20260503180003 64 301 11.3 0.0 0.00 0.00 0.00 45 1006.5
20260503175521 64 314 10.4 0.0 0.00 0.00 0.00 40 1006.5
20260503175045 64 329 11.3 0.0 0.00 0.00 0.00 42 1006.5
20260503174532 64 334 10.4 0.0 0.00 0.00 0.00 44 1006.7
20260503174049 64 313 9.6 0.0 0.00 0.00 0.00 43 1006.7
20260503173531 64 319 11.3 0.0 0.00 0.00 0.00 46 1006.7
20260503173011 64 277 8.7 0.0 0.00 0.00 0.00 46 1006.8
20260503172546 63 288 8.7 0.0 0.00 0.00 0.00 44 1006.8
20260503172013 63 336 9.6 0.0 0.00 0.00 0.00 45 1006.8
20260503171609 63 306 10.4 0.0 0.00 0.00 0.00 47 1007.1
20260503171031 63 300 12.2 0.0 0.00 0.00 0.00 43 1007.1
20260503170555 63 320 12.2 0.0 0.00 0.00 0.00 44 1007.1
20260503170505 62 312 11.3 0.0 0.00 0.00 0.00 43 1007.1
20260503150551 58 328 12.2 0.0 0.00 0.00 0.00 53 1007.4
20260503131011 52 331 11.3 0.0 0.00 0.00 0.00 62 1006.7
20260503130546 52 334 10.4 0.0 0.00 0.00 0.00 63 1006.7